Silver Bay, MN

12:03 AM CST on December 12, 2019 (GMT -0600)
Silver Bay Municipal

Weather History for KBFW - October, 2019

Change the Weather History Date:

Tuesday, October 22, 2019

  Actual Average Record
Temperature  
Mean Temperature 42 °F -  
Max Temperature 46 °F 45 °F 68 °F (1998)
Min Temperature 37 °F 30 °F 19 °F (2001)
Degree Days  
Heating Degree Days 24    
Moisture  
Dew Point 40 °F    
Average Humidity 90    
Maximum Humidity 93    
Minimum Humidity 81    
Precipitation  
Precipitation 0.00 in - - ()
Sea Level Pressure  
Sea Level Pressure 29.22 in    
Wind  
Wind Speed 4 mph (West)    
Max Wind Speed 14 mph    
Max Gust Speed 26 mph    
Visibility 8 miles    
Events Rain    
Averages and records for this station are not official NWS values.
T = Trace of Precipitation, MM = Missing Value Source: NWS Daily Summary

Daily Weather History Graph

Daily Weather History Graph

Search for Another Location

Airport or City:

Astronomy

Oct. 22, 2019 Rise Set
Actual Time 7:33 AM CDT 6:05 PM CDT
Civil Twilight 7:02 AM CDT 6:36 PM CDT
Nautical Twilight 6:26 AM CDT 7:12 PM CDT
Astronomical Twilight 5:51 AM CDT 7:47 PM CDT
Moon 12:10 AM CDT (10/22) 3:46 PM CDT (10/22)
Length of Visible Light 11h 34m
Length of Day
10h 31m
Last Quarter, 37% of the Moon is Illuminated
Oct 22
Last Quarter
Oct 27
New
Nov 4
First Quarter
Nov 12
Full
Nov 19
Last Quarter

Hourly Weather History & Observations

Time (CDT) Temp. Windchill Dew Point Humidity Pressure Visibility Wind Dir Wind Speed Gust Speed Precip Events Conditions
12:03 AM - - - N/A% 29.16 in - Calm Calm - N/A   Unknown
12:35 AM 44.6 °F - 42.8 °F 93% 29.17 in 1.0 mi Calm Calm - N/A   Light Drizzle
12:36 AM 44.6 °F - 42.8 °F 93% 29.17 in 1.0 mi Calm Calm - N/A   Drizzle
12:55 AM 46.4 °F - 44.6 °F 93% 29.16 in 7.0 mi Calm Calm - N/A   Overcast
1:15 AM 46.4 °F - 44.6 °F 93% 29.15 in 10.0 mi Calm Calm - N/A   Light Drizzle
1:16 AM 46.4 °F - 44.6 °F 93% 29.15 in 10.0 mi Calm Calm - N/A   Light Drizzle
1:35 AM 44.6 °F - 42.8 °F 93% 29.15 in 5.0 mi Calm Calm - N/A   Overcast
1:36 AM 44.6 °F - 42.8 °F 93% 29.15 in 5.0 mi Calm Calm - N/A   Overcast
1:55 AM 46.4 °F - 44.6 °F 93% 29.15 in 4.0 mi Calm Calm - N/A Rain Light Rain
2:15 AM 46.4 °F - 44.6 °F 93% 29.15 in 3.0 mi Calm Calm - N/A   Light Drizzle
2:35 AM 46.4 °F - 44.6 °F 93% 29.14 in 7.0 mi Calm Calm - N/A   Overcast
2:36 AM 46.4 °F - 44.6 °F 93% 29.14 in 5.0 mi Calm Calm - N/A   Drizzle
2:55 AM 46.4 °F - 44.6 °F 93% 29.14 in 5.0 mi Calm Calm - N/A Rain Light Rain
3:15 AM 46.4 °F 41.5 °F 44.6 °F 93% 29.13 in 5.0 mi South 10.4 mph - N/A Rain Rain
3:35 AM 44.6 °F 39.2 °F 42.8 °F 93% 29.13 in 7.0 mi South 10.4 mph 17.3 mph N/A Rain Rain
3:36 AM 44.6 °F 39.7 °F 42.8 °F 93% 29.13 in 7.0 mi South 9.2 mph 17.3 mph N/A Rain Rain
3:55 AM 44.6 °F 39.2 °F 42.8 °F 93% 29.13 in 10.0 mi South 10.4 mph 16.1 mph N/A Rain Rain
3:56 AM 44.6 °F 39.2 °F 42.8 °F 93% 29.13 in 7.0 mi South 10.4 mph 16.1 mph N/A Rain Rain
4:15 AM 44.6 °F 40.2 °F 42.8 °F 93% 29.13 in 10.0 mi South 8.1 mph - N/A Rain Rain
4:16 AM 44.6 °F 40.7 °F 42.8 °F 93% 29.13 in 10.0 mi South 6.9 mph - N/A Rain Rain
4:55 AM 44.6 °F 42.2 °F 42.8 °F 93% 29.13 in 10.0 mi South 4.6 mph - N/A Rain Light Rain
4:56 AM 44.6 °F 41.4 °F 42.8 °F 93% 29.13 in 10.0 mi South 5.8 mph - N/A Rain Light Rain
5:15 AM 44.6 °F 42.2 °F 42.8 °F 93% 29.13 in 7.0 mi SE 4.6 mph - N/A   Light Drizzle
5:16 AM 44.6 °F 42.2 °F 42.8 °F 93% 29.13 in 7.0 mi SE 4.6 mph - N/A   Light Drizzle
5:35 AM 44.6 °F 43.1 °F 42.8 °F 93% 29.13 in 4.0 mi ESE 3.5 mph - N/A   Light Drizzle
5:36 AM 44.6 °F 43.1 °F 42.8 °F 93% 29.13 in 4.0 mi ESE 3.5 mph - N/A   Light Drizzle
5:55 AM 44.6 °F 42.2 °F 42.8 °F 93% 29.13 in 2.0 mi ESE 4.6 mph - N/A   Light Drizzle
6:15 AM 44.6 °F 41.4 °F 42.8 °F 93% 29.13 in 1.2 mi ESE 5.8 mph - N/A   Overcast
6:16 AM 44.6 °F 41.4 °F 42.8 °F 93% 29.13 in 1.2 mi SE 5.8 mph - N/A   Overcast
6:35 AM 44.6 °F 40.7 °F 42.8 °F 93% 29.12 in 1.0 mi East 6.9 mph - N/A   Overcast
6:36 AM 44.6 °F 40.7 °F 42.8 °F 93% 29.12 in 0.8 mi ESE 6.9 mph - N/A   Overcast
6:55 AM 42.8 °F 40.1 °F 41.0 °F 93% 29.12 in 1.8 mi ESE 4.6 mph - N/A   Light Drizzle
7:15 AM 42.8 °F 41.1 °F 41.0 °F 93% 29.12 in 2.5 mi East 3.5 mph - N/A   Light Drizzle
7:16 AM 42.8 °F 40.1 °F 41.0 °F 93% 29.12 in 2.5 mi East 4.6 mph - N/A   Light Drizzle
7:35 AM 42.8 °F 41.1 °F 41.0 °F 93% 29.12 in 3.0 mi East 3.5 mph - N/A   Overcast
7:36 AM 42.8 °F 41.1 °F 41.0 °F 93% 29.12 in 3.0 mi ESE 3.5 mph - N/A   Overcast
7:55 AM 42.8 °F - 41.0 °F 93% 29.12 in 3.0 mi Calm Calm - N/A   Light Drizzle
8:15 AM 42.8 °F - 41.0 °F 93% 29.12 in 2.0 mi Calm Calm - N/A   Overcast
8:35 AM 44.6 °F - 42.8 °F 93% 29.12 in 1.5 mi Calm Calm - N/A   Overcast
8:36 AM 44.6 °F - 42.8 °F 93% 29.12 in 1.5 mi Calm Calm - N/A   Overcast
8:55 AM 44.6 °F - 42.8 °F 93% 29.12 in 2.5 mi Calm Calm - N/A   Overcast
9:15 AM 44.6 °F - 42.8 °F 93% 29.12 in 7.0 mi Calm Calm - N/A   Overcast
9:35 AM 44.6 °F - 42.8 °F 93% 29.12 in 10.0 mi Calm Calm - N/A   Overcast
9:36 AM 44.6 °F - 42.8 °F 93% 29.12 in 10.0 mi Calm Calm - N/A   Overcast
9:55 AM 44.6 °F 41.4 °F 42.8 °F 93% 29.12 in 10.0 mi West 5.8 mph - N/A   Light Drizzle
10:15 AM 44.6 °F 41.4 °F 42.8 °F 93% 29.13 in 10.0 mi WNW 5.8 mph - N/A Rain Light Rain
10:16 AM 44.6 °F 40.7 °F 42.8 °F 93% 29.13 in 10.0 mi WNW 6.9 mph - N/A Rain Light Rain
10:35 AM 42.8 °F 39.3 °F 41.0 °F 93% 29.13 in 10.0 mi WNW 5.8 mph - N/A   Light Drizzle
10:36 AM 42.8 °F 40.1 °F 41.0 °F 93% 29.13 in 10.0 mi WNW 4.6 mph - N/A   Light Drizzle
10:55 AM 42.8 °F 39.3 °F 41.0 °F 93% 29.14 in 7.0 mi WNW 5.8 mph 17.3 mph N/A   Drizzle
11:15 AM 42.8 °F 39.3 °F 41.0 °F 93% 29.14 in 10.0 mi West 5.8 mph - N/A   Overcast
11:35 AM 42.8 °F 38.6 °F 41.0 °F 93% 29.14 in 10.0 mi WNW 6.9 mph - N/A   Overcast
11:36 AM 42.8 °F 38.6 °F 41.0 °F 93% 29.15 in 10.0 mi West 6.9 mph - N/A   Mostly Cloudy
11:55 AM 42.8 °F 39.3 °F 41.0 °F 93% 29.15 in 10.0 mi WNW 5.8 mph - N/A   Mostly Cloudy
12:15 PM 42.8 °F - 41.0 °F 93% 29.15 in 10.0 mi Calm Calm - N/A   Overcast
12:35 PM 42.8 °F 38.0 °F 39.2 °F 87% 29.16 in 10.0 mi WNW 8.1 mph 17.3 mph N/A   Overcast
12:36 PM 42.8 °F 38.6 °F 39.2 °F 87% 29.16 in 10.0 mi NW 6.9 mph 17.3 mph N/A   Overcast
12:55 PM 42.8 °F 37.5 °F 41.0 °F 93% 29.16 in 10.0 mi WNW 9.2 mph - N/A   Mostly Cloudy
12:56 PM 42.8 °F 37.0 °F 39.2 °F 87% 29.16 in 10.0 mi WNW 10.4 mph 17.3 mph N/A   Mostly Cloudy
1:15 PM 42.8 °F 40.1 °F 39.2 °F 87% 29.16 in 10.0 mi West 4.6 mph - N/A   Mostly Cloudy
1:16 PM 42.8 °F 39.3 °F 39.2 °F 87% 29.16 in 10.0 mi West 5.8 mph - N/A   Mostly Cloudy
1:35 PM 42.8 °F 41.1 °F 39.2 °F 87% 29.17 in 10.0 mi West 3.5 mph 18.4 mph N/A   Overcast
1:36 PM 42.8 °F 39.3 °F 39.2 °F 87% 29.17 in 10.0 mi WNW 5.8 mph 18.4 mph N/A   Overcast
1:55 PM 42.8 °F 38.6 °F 39.2 °F 87% 29.18 in 10.0 mi WNW 6.9 mph - N/A   Overcast
2:15 PM 42.8 °F 37.5 °F 39.2 °F 87% 29.18 in 7.0 mi WNW 9.2 mph - N/A   Overcast
2:16 PM 42.8 °F 38.0 °F 39.2 °F 87% 29.18 in 10.0 mi WNW 8.1 mph - N/A   Overcast
2:35 PM 42.8 °F 38.0 °F 39.2 °F 87% 29.19 in 7.0 mi West 8.1 mph - N/A   Overcast
2:55 PM 42.8 °F 38.0 °F 39.2 °F 87% 29.19 in 10.0 mi West 8.1 mph 17.3 mph N/A   Mostly Cloudy
2:56 PM 42.8 °F 38.0 °F 39.2 °F 87% 29.20 in 10.0 mi West 8.1 mph 17.3 mph N/A   Mostly Cloudy
3:15 PM 42.8 °F 36.2 °F 39.2 °F 87% 29.21 in 10.0 mi WNW 12.7 mph 19.6 mph N/A   Overcast
3:35 PM 42.8 °F 35.8 °F 39.2 °F 87% 29.22 in 10.0 mi West 13.8 mph 21.9 mph N/A   Mostly Cloudy
3:36 PM 42.8 °F 36.6 °F 39.2 °F 87% 29.22 in 10.0 mi West 11.5 mph 21.9 mph N/A   Mostly Cloudy
3:55 PM 42.8 °F 39.3 °F 37.4 °F 81% 29.23 in 10.0 mi West 5.8 mph 20.7 mph N/A   Overcast
3:56 PM 42.8 °F 38.0 °F 37.4 °F 81% 29.23 in 10.0 mi WNW 8.1 mph 20.7 mph N/A   Overcast
4:15 PM 42.8 °F 38.0 °F 37.4 °F 81% 29.24 in 10.0 mi WNW 8.1 mph 21.9 mph N/A   Overcast
4:16 PM 42.8 °F 37.5 °F 37.4 °F 81% 29.24 in 10.0 mi WNW 9.2 mph 20.7 mph N/A   Overcast
4:35 PM 42.8 °F 40.1 °F 37.4 °F 81% 29.25 in 10.0 mi WNW 4.6 mph 20.7 mph N/A   Overcast
4:36 PM 42.8 °F 41.1 °F 37.4 °F 81% 29.25 in 10.0 mi West 3.5 mph 20.7 mph N/A   Mostly Cloudy
4:55 PM 41.0 °F 34.7 °F 37.4 °F 87% 29.26 in 10.0 mi West 10.4 mph 19.6 mph N/A   Scattered Clouds
5:15 PM 41.0 °F 34.7 °F 37.4 °F 87% 29.27 in 10.0 mi West 10.4 mph 18.4 mph N/A   Scattered Clouds
5:16 PM 41.0 °F 35.8 °F 37.4 °F 87% 29.27 in 10.0 mi West 8.1 mph 17.3 mph N/A   Scattered Clouds
5:35 PM 41.0 °F 35.8 °F 37.4 °F 87% 29.29 in 10.0 mi WNW 8.1 mph 26.5 mph N/A   Scattered Clouds
5:36 PM 41.0 °F 35.2 °F 37.4 °F 87% 29.29 in 10.0 mi WNW 9.2 mph 26.5 mph N/A   Scattered Clouds
5:55 PM 41.0 °F 35.8 °F 37.4 °F 87% 29.29 in 10.0 mi WNW 8.1 mph 18.4 mph N/A   Mostly Cloudy
5:56 PM 41.0 °F 36.4 °F 37.4 °F 87% 29.29 in 10.0 mi WNW 6.9 mph 18.4 mph N/A   Mostly Cloudy
6:15 PM 39.2 °F 33.6 °F 37.4 °F 93% 29.30 in 7.0 mi West 8.1 mph 19.6 mph N/A   Scattered Clouds
6:35 PM 39.2 °F 34.2 °F 37.4 °F 93% 29.31 in 10.0 mi WSW 6.9 mph - N/A   Overcast
6:36 PM 39.2 °F 32.0 °F 37.4 °F 93% 29.31 in 10.0 mi West 11.5 mph 19.6 mph N/A   Overcast
6:55 PM 39.2 °F 35.0 °F 35.6 °F 87% 29.32 in 10.0 mi WSW 5.8 mph 18.4 mph N/A   Overcast
6:56 PM 39.2 °F 35.0 °F 35.6 °F 87% 29.32 in 10.0 mi WSW 5.8 mph 18.4 mph N/A   Mostly Cloudy
7:15 PM 39.2 °F 33.6 °F 35.6 °F 87% 29.33 in 10.0 mi West 8.1 mph 16.1 mph N/A   Overcast
7:16 PM 39.2 °F 34.2 °F 35.6 °F 87% 29.33 in 10.0 mi West 6.9 mph 16.1 mph N/A   Overcast
7:35 PM 39.2 °F 35.0 °F 35.6 °F 87% 29.34 in 10.0 mi WNW 5.8 mph 24.2 mph N/A   Overcast
7:36 PM 39.2 °F 35.0 °F 35.6 °F 87% 29.34 in 10.0 mi WNW 5.8 mph 17.3 mph N/A   Overcast
7:55 PM 39.2 °F 35.0 °F 35.6 °F 87% 29.36 in 10.0 mi West 5.8 mph 18.4 mph N/A   Overcast
8:15 PM 37.4 °F 30.3 °F 35.6 °F 93% 29.36 in 10.0 mi West 10.4 mph 16.1 mph N/A   Overcast
8:35 PM 39.2 °F 33.0 °F 35.6 °F 87% 29.37 in 10.0 mi West 9.2 mph 23.0 mph N/A   Overcast
8:36 PM 39.2 °F 33.6 °F 35.6 °F 87% 29.37 in 10.0 mi West 8.1 mph 23.0 mph N/A   Overcast
8:55 PM 37.4 °F 29.3 °F 35.6 °F 93% 29.37 in 10.0 mi WNW 12.7 mph 24.2 mph N/A   Mostly Cloudy
8:56 PM 37.4 °F 29.8 °F 35.6 °F 93% 29.37 in 10.0 mi West 11.5 mph 24.2 mph N/A   Mostly Cloudy
9:35 PM 37.4 °F 32.1 °F 35.6 °F 93% 29.39 in 10.0 mi West 6.9 mph - N/A   Overcast
9:36 PM 37.4 °F 32.1 °F 35.6 °F 93% 29.39 in 10.0 mi West 6.9 mph - N/A   Overcast
9:55 PM 37.4 °F 31.4 °F 35.6 °F 93% 29.40 in 10.0 mi West 8.1 mph 17.3 mph N/A   Overcast
10:15 PM 37.4 °F 32.1 °F 35.6 °F 93% 29.41 in 10.0 mi West 6.9 mph 18.4 mph N/A   Overcast
10:16 PM 37.4 °F 31.4 °F 35.6 °F 93% 29.41 in 10.0 mi West 8.1 mph 17.3 mph N/A   Overcast
10:35 PM 37.4 °F 31.4 °F 35.6 °F 93% 29.42 in 10.0 mi West 8.1 mph 17.3 mph N/A   Overcast
10:55 PM 37.4 °F 32.1 °F 35.6 °F 93% 29.43 in 10.0 mi West 6.9 mph - N/A   Overcast
10:56 PM 37.4 °F 33.8 °F 35.6 °F 93% 29.43 in 10.0 mi West 4.6 mph - N/A   Overcast
11:15 PM 37.4 °F 33.8 °F 33.8 °F 87% 29.44 in 10.0 mi WSW 4.6 mph 19.6 mph N/A   Mostly Cloudy
11:16 PM 37.4 °F 32.8 °F 33.8 °F 87% 29.44 in 10.0 mi West 5.8 mph 19.6 mph N/A   Mostly Cloudy
11:35 PM 37.4 °F 32.1 °F 33.8 °F 87% 29.44 in 10.0 mi West 6.9 mph 16.1 mph N/A   Overcast
11:36 PM 37.4 °F 32.1 °F 33.8 °F 87% 29.44 in 10.0 mi West 6.9 mph 16.1 mph N/A   Overcast
11:55 PM 37.4 °F 32.1 °F 33.8 °F 87% 29.45 in 10.0 mi West 6.9 mph - N/A   Overcast
11:56 PM 37.4 °F 32.1 °F 33.8 °F 87% 29.45 in 10.0 mi West 6.9 mph - N/A   Overcast